Radiation Dose at Monitoring Post of Fukushima Daini Nuclear Power Station
Date,Time,MP-1(microSv/h),MP-2(microSv/h),MP-3(microSv/h),MP-4(microSv/h),MP-5(microSv/h),MP-6(microSv/h),MP-7(microSv/h),Wind Direction,Wind Velocity(m/s),Rain
2022/05/15,00:00,0.153,0.142,0.221,0.214,0.224,0.123,0.081,east-northeast,2.6,Yes
2022/05/15,00:10,0.152,0.143,0.219,0.215,0.219,0.122,0.081,north-northeast,2.1,Yes
2022/05/15,00:20,0.153,0.141,0.218,0.212,0.221,0.123,0.080,-,CALM,Yes
2022/05/15,00:30,0.151,0.141,0.220,0.213,0.218,0.121,0.080,east-northeast,1.3,Yes
2022/05/15,00:40,0.152,0.142,0.218,0.213,0.221,0.121,0.080,east,0.8,Yes
2022/05/15,00:50,0.150,0.140,0.219,0.213,0.220,0.122,0.079,east-southeast,1.0,Yes
2022/05/15,01:00,0.150,0.141,0.218,0.212,0.220,0.121,0.080,-,CALM,Yes
2022/05/15,01:10,0.150,0.141,0.219,0.212,0.219,0.120,0.078,north-northwest,1.4,Yes
2022/05/15,01:20,0.149,0.141,0.219,0.214,0.219,0.120,0.079,-,CALM,No
2022/05/15,01:30,0.151,0.140,0.218,0.212,0.219,0.120,0.078,west-southwest,1.2,Yes
2022/05/15,01:40,0.150,0.140,0.219,0.212,0.218,0.120,0.078,northwest,1.5,Yes
2022/05/15,01:50,0.149,0.141,0.216,0.212,0.218,0.120,0.077,-,CALM,Yes
2022/05/15,02:00,0.149,0.139,0.219,0.211,0.217,0.120,0.078,east,1.8,No
2022/05/15,02:10,0.151,0.141,0.217,0.213,0.220,0.120,0.077,east-northeast,0.7,No
2022/05/15,02:20,0.149,0.139,0.217,0.211,0.217,0.120,0.077,northwest,2.7,Yes
2022/05/15,02:30,0.149,0.140,0.218,0.211,0.219,0.119,0.077,north,2.8,No
2022/05/15,02:40,0.149,0.140,0.216,0.211,0.217,0.120,0.077,northwest,2.6,No
2022/05/15,02:50,0.149,0.139,0.216,0.212,0.219,0.119,0.077,northwest,4.4,No
2022/05/15,03:00,0.149,0.139,0.217,0.210,0.217,0.120,0.076,north-northwest,3.5,No
2022/05/15,03:10,0.150,0.139,0.216,0.211,0.217,0.118,0.076,north-northwest,3.5,No
2022/05/15,03:20,0.149,0.139,0.217,0.211,0.216,0.119,0.077,north,2.7,No
2022/05/15,03:30,0.149,0.139,0.217,0.211,0.218,0.120,0.076,northeast,3.5,No
2022/05/15,03:40,0.149,0.139,0.218,0.210,0.218,0.118,0.076,northeast,2.6,No
2022/05/15,03:50,0.149,0.139,0.217,0.210,0.217,0.120,0.077,northeast,1.7,No
2022/05/15,04:00,0.150,0.141,0.218,0.212,0.219,0.119,0.076,east,2.0,No
2022/05/15,04:10,0.149,0.139,0.217,0.210,0.216,0.119,0.076,east,2.4,No
2022/05/15,04:20,0.150,0.139,0.217,0.211,0.218,0.119,0.076,east,2.6,No
2022/05/15,04:30,0.149,0.139,0.217,0.212,0.218,0.119,0.076,east-southeast,3.0,No
2022/05/15,04:40,0.149,0.140,0.216,0.211,0.220,0.119,0.077,east,2.4,No
2022/05/15,04:50,0.149,0.139,0.217,0.210,0.217,0.119,0.077,north,0.6,No
2022/05/15,05:00,0.149,0.140,0.217,0.211,0.219,0.119,0.077,-,CALM,No
2022/05/15,05:10,0.149,0.139,0.216,0.211,0.217,0.119,0.076,-,CALM,No
2022/05/15,05:20,0.148,0.140,0.218,0.210,0.219,0.120,0.077,north-northeast,0.6,No
2022/05/15,05:30,0.149,0.140,0.216,0.211,0.217,0.119,0.076,north,2.0,No
2022/05/15,05:40,0.149,0.139,0.217,0.210,0.218,0.119,0.076,north-northwest,2.1,No
2022/05/15,05:50,0.150,0.139,0.216,0.211,0.218,0.119,0.076,northwest,3.1,No
2022/05/15,06:00,0.148,0.139,0.219,0.211,0.219,0.120,0.077,north-northwest,2.9,No
2022/05/15,06:10,0.149,0.139,0.217,0.211,0.218,0.119,0.077,north-northwest,2.9,No
2022/05/15,06:20,0.149,0.139,0.217,0.212,0.218,0.120,0.077,north-northwest,3.5,No
2022/05/15,06:30,0.148,0.139,0.218,0.212,0.219,0.120,0.076,north-northwest,4.0,No
2022/05/15,06:40,0.149,0.139,0.216,0.211,0.217,0.120,0.077,north-northwest,3.8,No
2022/05/15,06:50,0.149,0.139,0.218,0.211,0.217,0.119,0.076,northwest,3.5,No
2022/05/15,07:00,0.149,0.140,0.216,0.211,0.218,0.119,0.077,northwest,3.6,No
2022/05/15,07:10,0.150,0.139,0.218,0.209,0.219,0.119,0.076,northwest,3.4,No
2022/05/15,07:20,0.149,0.140,0.216,0.212,0.216,0.120,0.076,northwest,3.9,No
2022/05/15,07:30,0.150,0.139,0.217,0.211,0.219,0.119,0.076,northwest,3.4,No
2022/05/15,07:40,0.150,0.139,0.218,0.211,0.217,0.118,0.076,northwest,2.2,No
2022/05/15,07:50,0.149,0.140,0.218,0.211,0.219,0.120,0.076,northwest,0.9,No
2022/05/15,08:00,0.150,0.139,0.216,0.212,0.217,0.119,0.077,northwest,0.9,No
2022/05/15,08:10,0.148,0.139,0.216,0.211,0.218,0.119,0.076,-,CALM,No
2022/05/15,08:20,0.150,0.140,0.217,0.211,0.218,0.120,0.077,-,CALM,No
2022/05/15,08:30,0.149,0.140,0.217,0.210,0.218,0.119,0.076,west-northwest,1.1,No
2022/05/15,08:40,0.149,0.139,0.217,0.212,0.218,0.119,0.077,west,0.7,No
2022/05/15,08:50,0.150,0.139,0.218,0.211,0.218,0.120,0.077,west-southwest,1.0,No
2022/05/15,09:00,0.150,0.140,0.216,0.212,0.218,0.119,0.077,south,1.0,No
2022/05/15,09:10,0.150,0.140,0.218,0.211,0.217,0.120,0.077,south,0.8,No
2022/05/15,09:20,0.149,0.140,0.216,0.212,0.219,0.119,0.076,south-southeast,0.8,No
2022/05/15,09:30,0.151,0.139,0.219,0.210,0.218,0.120,0.077,south-southeast,1.4,No
2022/05/15,09:40,0.150,0.140,0.216,0.211,0.217,0.120,0.076,south-southeast,2.2,No
2022/05/15,09:50,0.150,0.139,0.218,0.211,0.220,0.119,0.077,southeast,2.1,No
2022/05/15,10:00,0.150,0.140,0.216,0.211,0.217,0.120,0.077,southeast,2.5,No
2022/05/15,10:10,0.148,0.138,0.217,0.213,0.219,0.119,0.077,southeast,3.1,No
2022/05/15,10:20,0.151,0.140,0.218,0.211,0.218,0.119,0.076,southeast,2.5,No
2022/05/15,10:30,0.148,0.140,0.217,0.213,0.217,0.120,0.077,southeast,2.5,No
2022/05/15,10:40,0.151,0.139,0.218,0.210,0.219,0.119,0.077,east-southeast,2.9,No
2022/05/15,10:50,0.150,0.140,0.215,0.210,0.217,0.120,0.076,east-southeast,2.5,No
2022/05/15,11:00,0.148,0.139,0.216,0.213,0.217,0.120,0.077,east-southeast,2.5,No
2022/05/15,11:10,0.150,0.139,0.218,0.211,0.218,0.120,0.076,southeast,2.0,No
2022/05/15,11:20,0.149,0.140,0.217,0.211,0.217,0.120,0.077,southeast,1.3,No
2022/05/15,11:30,0.148,0.140,0.217,0.211,0.217,0.119,0.077,south-southeast,1.5,No
2022/05/15,11:40,0.150,0.140,0.220,0.211,0.220,0.120,0.076,-,CALM,No
2022/05/15,11:50,0.149,0.141,0.216,0.211,0.218,0.120,0.076,southeast,1.2,No
2022/05/15,12:00,0.149,0.139,0.216,0.213,0.216,0.119,0.077,east-southeast,0.8,No
2022/05/15,12:10,0.150,0.139,0.219,0.211,0.218,0.120,0.076,east,0.9,No
2022/05/15,12:20,0.150,0.140,0.219,0.211,0.218,0.119,0.077,-,CALM,No
2022/05/15,12:30,0.149,0.139,0.217,0.213,0.217,0.119,0.077,-,CALM,No
2022/05/15,12:40,0.148,0.137,0.218,0.212,0.215,0.119,0.077,east-southeast,3.6,No
2022/05/15,12:50,0.150,0.140,0.219,0.211,0.218,0.120,0.076,east-southeast,2.4,No
2022/05/15,13:00,0.150,0.141,0.217,0.210,0.219,0.120,0.076,east-southeast,0.6,No
2022/05/15,13:10,0.149,0.140,0.217,0.210,0.217,0.120,0.077,-,CALM,No
2022/05/15,13:20,0.148,0.139,0.219,0.213,0.216,0.119,0.077,-,CALM,No
2022/05/15,13:30,0.149,0.141,0.220,0.213,0.219,0.121,0.076,east-southeast,1.0,No
2022/05/15,13:40,0.151,0.141,0.217,0.210,0.220,0.119,0.076,-,CALM,No
2022/05/15,13:50,0.150,0.140,0.216,0.211,0.218,0.120,0.076,-,CALM,No
2022/05/15,14:00,0.149,0.139,0.220,0.215,0.217,0.119,0.077,east-southeast,1.6,No
2022/05/15,14:10,0.148,0.140,0.220,0.213,0.216,0.120,0.076,east,1.6,No
2022/05/15,14:20,0.148,0.141,0.219,0.212,0.219,0.120,0.076,east-southeast,0.6,No
2022/05/15,14:30,0.151,0.139,0.216,0.211,0.221,0.120,0.076,east-southeast,0.9,No
2022/05/15,14:40,0.150,0.139,0.220,0.213,0.219,0.119,0.076,east-southeast,1.5,No
2022/05/15,14:50,0.150,0.140,0.220,0.214,0.218,0.119,0.076,east-southeast,0.8,No
2022/05/15,15:00,0.148,0.141,0.219,0.213,0.216,0.120,0.076,east-southeast,2.1,No
2022/05/15,15:10,0.148,0.140,0.218,0.211,0.217,0.120,0.076,south-southeast,3.5,No
2022/05/15,15:20,0.151,0.139,0.219,0.213,0.220,0.119,0.077,south-southeast,2.4,No
2022/05/15,15:30,0.150,0.139,0.219,0.214,0.219,0.119,0.077,south-southeast,3.4,No
2022/05/15,15:40,0.150,0.141,0.219,0.213,0.218,0.119,0.076,south-southeast,3.5,No
2022/05/15,15:50,0.149,0.139,0.221,0.213,0.217,0.120,0.077,south-southeast,4.2,No
2022/05/15,16:00,0.151,0.140,0.219,0.214,0.221,0.120,0.077,south,3.3,No
2022/05/15,16:10,0.151,0.140,0.219,0.213,0.221,0.120,0.077,south-southeast,2.5,No
2022/05/15,16:20,0.150,0.140,0.220,0.215,0.219,0.120,0.077,south-southeast,4.3,No
2022/05/15,16:30,0.149,0.141,0.219,0.214,0.217,0.120,0.077,south-southeast,4.5,No
2022/05/15,16:40,0.152,0.140,0.220,0.213,0.216,0.121,0.078,south-southeast,3.9,No
2022/05/15,16:50,0.151,0.141,0.218,0.215,0.220,0.120,0.076,south-southeast,3.6,No
2022/05/15,17:00,0.150,0.141,0.220,0.214,0.219,0.120,0.077,south-southeast,3.7,No
2022/05/15,17:10,0.151,0.140,0.219,0.216,0.220,0.120,0.076,south-southeast,4.3,No
2022/05/15,17:20,0.151,0.141,0.222,0.212,0.221,0.120,0.077,south-southeast,4.5,No
2022/05/15,17:30,0.152,0.140,0.220,0.214,0.220,0.120,0.077,south-southeast,4.8,No
2022/05/15,17:40,0.150,0.140,0.221,0.213,0.222,0.120,0.077,south,4.7,No
2022/05/15,17:50,0.151,0.142,0.219,0.215,0.219,0.121,0.076,south-southeast,4.2,No
2022/05/15,18:00,0.150,0.140,0.221,0.213,0.221,0.120,0.077,south-southeast,5.0,No
2022/05/15,18:10,0.151,0.142,0.219,0.216,0.219,0.120,0.077,south-southeast,4.8,No
2022/05/15,18:20,0.150,0.140,0.220,0.212,0.221,0.120,0.077,south-southeast,4.6,No
2022/05/15,18:30,0.151,0.140,0.219,0.215,0.219,0.121,0.077,south,4.6,No
2022/05/15,18:40,0.150,0.140,0.221,0.213,0.221,0.120,0.077,south,4.3,No
2022/05/15,18:50,0.151,0.141,0.220,0.214,0.218,0.120,0.077,south,3.7,No
2022/05/15,19:00,0.151,0.141,0.219,0.214,0.220,0.121,0.077,south,2.7,No
2022/05/15,19:10,0.151,0.140,0.221,0.216,0.220,0.121,0.078,south-southwest,3.2,No
2022/05/15,19:20,0.150,0.142,0.219,0.214,0.221,0.120,0.077,south-southwest,4.3,No
2022/05/15,19:30,0.152,0.141,0.220,0.215,0.218,0.119,0.077,south-southwest,4.7,No
2022/05/15,19:40,0.151,0.141,0.220,0.212,0.221,0.119,0.077,south,3.8,No
2022/05/15,19:50,0.150,0.142,0.221,0.214,0.219,0.121,0.077,south-southwest,2.6,No
2022/05/15,20:00,0.150,0.141,0.219,0.214,0.220,0.121,0.077,southwest,0.8,No
2022/05/15,20:10,0.151,0.142,0.220,0.214,0.219,0.120,0.077,west-southwest,0.8,No
2022/05/15,20:20,0.150,0.141,0.221,0.214,0.221,0.121,0.077,west-southwest,1.8,No
2022/05/15,20:30,0.151,0.141,0.220,0.214,0.218,0.120,0.078,southwest,1.4,No
2022/05/15,20:40,0.151,0.142,0.222,0.216,0.220,0.120,0.076,southwest,1.4,No
2022/05/15,20:50,0.151,0.141,0.220,0.214,0.220,0.121,0.078,west,1.0,No
2022/05/15,21:00,0.150,0.141,0.220,0.214,0.219,0.121,0.077,northwest,1.3,No
2022/05/15,21:10,0.152,0.141,0.221,0.214,0.221,0.121,0.077,northwest,1.3,No
2022/05/15,21:20,0.151,0.141,0.221,0.214,0.219,0.120,0.078,northwest,1.3,No
2022/05/15,21:30,0.151,0.141,0.220,0.214,0.221,0.121,0.077,west-northwest,1.8,No
2022/05/15,21:40,0.151,0.141,0.221,0.217,0.219,0.120,0.077,west-northwest,1.8,No
2022/05/15,21:50,0.151,0.141,0.220,0.215,0.221,0.121,0.077,northwest,1.9,No
2022/05/15,22:00,0.152,0.141,0.221,0.214,0.221,0.120,0.077,north-northwest,1.1,No
2022/05/15,22:10,0.150,0.141,0.221,0.214,0.220,0.120,0.077,northwest,2.0,No
2022/05/15,22:20,0.152,0.140,0.220,0.214,0.220,0.121,0.078,northwest,2.3,No
2022/05/15,22:30,0.150,0.142,0.221,0.214,0.220,0.120,0.078,northwest,1.7,No
2022/05/15,22:40,0.151,0.142,0.220,0.214,0.221,0.121,0.078,north-northwest,2.4,No
2022/05/15,22:50,0.152,0.142,0.221,0.215,0.220,0.120,0.077,northwest,2.2,No
2022/05/15,23:00,0.150,0.142,0.220,0.215,0.220,0.121,0.078,north-northwest,1.7,No
2022/05/15,23:10,0.152,0.141,0.221,0.213,0.218,0.121,0.077,north-northwest,1.9,No
2022/05/15,23:20,0.151,0.141,0.220,0.214,0.221,0.120,0.077,north-northwest,1.9,Yes
2022/05/15,23:30,0.152,0.142,0.221,0.214,0.220,0.121,0.077,north-northwest,1.7,No
2022/05/15,23:40,0.151,0.141,0.221,0.215,0.222,0.121,0.077,north-northwest,1.2,No
2022/05/15,23:50,0.152,0.141,0.221,0.214,0.219,0.121,0.078,north-northwest,0.9,No
